Address 0xc2d4269946a488c38b02c73eac19ec1b79a0e5b7

 
Txn Hash
Block
From
To
Value [Txn Fee]
0xaf210dee9b30717c152c853b211d5eaadcc7e44a40f77860ef6d28aee511364f78613642021-05-30 13:57:2622 days 11 hrs ago0xc2d4269946a488c38b02c73eac19ec1b79a0e5b7OUT0xf26d11d498a47a74c3e0f61ae529f31e8018ec310.045 BNB0.000105
0x7491cce9f60d18815a1e453f66493cc68195af56d8cfc4204aea56d5893be2cf77949752021-05-28 6:27:5624 days 19 hrs ago0xc2d4269946a488c38b02c73eac19ec1b79a0e5b7OUT 0x055930e510a331c448ce92d2a85f984aba177fbb0 BNB0.001210355
0x2e70d0fb7f108bb4306763d8a6774a0132c2929f43d4c0b1b23c0fd8ab7427f777949632021-05-28 6:27:2024 days 19 hrs ago0xc2d4269946a488c38b02c73eac19ec1b79a0e5b7OUT 0x32afc8dc2ff4af284fa5341954050f917357a5f10 BNB0.00022479
0x516f5fa568a95d4430840b0bcde03fa2bdb06c2835e3d464e17077234157d23477948942021-05-28 6:23:5324 days 19 hrs ago0xc2d4269946a488c38b02c73eac19ec1b79a0e5b7OUT 0x7b43af1a06378445f38408e10385ab32a05baedb0 BNB0.00198167
0x0d47e6ff5801c22b429d8f1fe33d1ecbbf12d3e0ae2b7b3a1cdaf1b9fa5fb27f77880552021-05-28 0:40:2325 days 58 mins ago0xc2d4269946a488c38b02c73eac19ec1b79a0e5b7OUT PancakeSwap: Router v20 BNB0.001912035
0x1c56d371c48c0dd65a9e5bd690059afd07f247cf0bc921f1455a4d1befee6faa77879632021-05-28 0:35:4725 days 1 hr ago0xc2d4269946a488c38b02c73eac19ec1b79a0e5b7OUT Feg: FEG Token0 BNB0.000222145
0x7c2a2d4f2ae11fb8ef4de6ad330ecb913a325a97372ec79196bbcc615d92d5d677879242021-05-28 0:33:5025 days 1 hr ago0xc2d4269946a488c38b02c73eac19ec1b79a0e5b7OUT Feg: FEG Token0 BNB0.000222145
0xf7c299a9f0c810e4531c5e9b0c7b1ebd3631fbd781d76bbf4fde6f0f650ef2ac76789562021-05-24 5:08:5628 days 20 hrs ago0xc2d4269946a488c38b02c73eac19ec1b79a0e5b7OUT0xf26d11d498a47a74c3e0f61ae529f31e8018ec310.017359525 BNB0.000105
0x7e9a908dc90426baf55af0a5a63fff3a4778a5caf8cda52f3461477c0778813d74284212021-05-15 10:25:1237 days 15 hrs ago0xc2d4269946a488c38b02c73eac19ec1b79a0e5b7OUT 0xd78bd47a6934959583b47f081ce0f9fd5e0338d10 BNB0.000357325
0x1786e926b4160dea100776b753ff81ea54f9082ea7c20fdf89a8ce26e373169174266402021-05-15 8:55:4737 days 16 hrs ago0xc2d4269946a488c38b02c73eac19ec1b79a0e5b7OUT Binance: BUSD Stablecoin0 BNB0.000105695
0xec004afd0fe0a9f87786086c5eb4152c0a2ba794da1da602388d9f4b7132e77274266182021-05-15 8:54:4137 days 16 hrs ago0xc2d4269946a488c38b02c73eac19ec1b79a0e5b7OUT BakerySwap: BAKE Token0 BNB0.000105455
0xa8353f9bbc8a732741e7523c6082f525fc3a99d964adc29b6063a11dbbe51e7874265822021-05-15 8:52:5337 days 16 hrs ago0xc2d4269946a488c38b02c73eac19ec1b79a0e5b7OUT 0xcde540d7eafe93ac5fe6233bee57e1270d3e330f0 BNB0.000757705
0x1e65cbb8e30bd8bdc4f2ea6e2f6791f86b11d1bc5aa850b3501dfef9f8352d5c74265722021-05-15 8:52:2337 days 16 hrs ago0xc2d4269946a488c38b02c73eac19ec1b79a0e5b7OUT 0x6e218ea042bef40a8baf706b00d0f0a7b4fce50a0 BNB0.000221655
0xaf25b93dbfe9cbf0112a5dab5da329f9bc27bb62bce5e99013ad60d6116a965174265632021-05-15 8:51:5637 days 16 hrs ago0xc2d4269946a488c38b02c73eac19ec1b79a0e5b7OUT 0x20ec291bb8459b6145317e7126532ce7ece5056f0 BNB0.000644175
0x914edbaba6547450cdc0b15260fe8c2e7a02e52258fa25cf3532f36110fc058674265552021-05-15 8:51:3237 days 16 hrs ago0xc2d4269946a488c38b02c73eac19ec1b79a0e5b7OUT 0x20ec291bb8459b6145317e7126532ce7ece5056f0 BNB0.00073165
0xeda19094dde2b7cb1d41ad7bfb11b39695660485e722b2637da9d9e6b27e48fe74045842021-05-14 13:53:3338 days 11 hrs ago0xc2d4269946a488c38b02c73eac19ec1b79a0e5b7OUT0x858f17c503ea60ea82878c95ea8b1a768ed895eb0.086 BNB0.000105
0x8ad3b2d12c5a3ca6d7ab53aa68b8ccff12523d3a20c1dbd85e3487d07400789d74020732021-05-14 11:47:3938 days 13 hrs ago0xc2d4269946a488c38b02c73eac19ec1b79a0e5b7OUT BakerySwap: BAKE Token0 BNB0.000180455
0x33cc5c3d84fb3ea9b5b7a9f2b833a749fd52cbe2c9a4ec95c6d81ae7ea1f2e9d74020272021-05-14 11:45:2138 days 13 hrs ago0xc2d4269946a488c38b02c73eac19ec1b79a0e5b7OUT 0x20ec291bb8459b6145317e7126532ce7ece5056f0 BNB0.00069454
0x0cf4919031982f182b0ef040088b30fa4885c11d1f17eb8cdaa6a82d88872d2a74020202021-05-14 11:45:0038 days 13 hrs ago0xc2d4269946a488c38b02c73eac19ec1b79a0e5b7OUT 0x6e218ea042bef40a8baf706b00d0f0a7b4fce50a0 BNB0.000221655
0x594ae99243f5350f1a57c8b0a001c21d8cef3f28bf1981a6df6217c371811ef274019982021-05-14 11:43:5438 days 13 hrs ago0xc2d4269946a488c38b02c73eac19ec1b79a0e5b7OUT 0xcde540d7eafe93ac5fe6233bee57e1270d3e330f0 BNB0.000800535
0x29c4cf3ea120d7f537b7d7e7abd98655fe3f6a8a8f473e5265dc915ce578e1e874019862021-05-14 11:43:1838 days 13 hrs ago0xc2d4269946a488c38b02c73eac19ec1b79a0e5b7OUT BakerySwap: BAKE Token0 BNB0.00022191
0x37f0f8effb23be4769dd2c8448e0a83ff7169a2cbf46a4ea9461f4893421c69874019752021-05-14 11:42:4538 days 13 hrs ago0xc2d4269946a488c38b02c73eac19ec1b79a0e5b7OUT Binance: BUSD Stablecoin0 BNB0.00022203
0xdce700c73d55d03e11afa2245c2f3e20010c223920c734a111452a8061955c4074018682021-05-14 11:37:2438 days 14 hrs ago0xc2d4269946a488c38b02c73eac19ec1b79a0e5b7OUT 0x20ec291bb8459b6145317e7126532ce7ece5056f0 BNB0.000527185
0xae412af7eb77587e03e6aed46bdfc57de541bfa4f29c4686eb763a9d5b530f6c74018602021-05-14 11:37:0038 days 14 hrs ago0xc2d4269946a488c38b02c73eac19ec1b79a0e5b7OUT 0x20ec291bb8459b6145317e7126532ce7ece5056f0 BNB0.000747135
0xa12840c6c9107857da8ad508a32536c5b2950a6cd42ba2d6dd9cbc77630f90ef74017352021-05-14 11:30:4538 days 14 hrs ago0xc2d4269946a488c38b02c73eac19ec1b79a0e5b7OUT PancakeSwap: Router0 BNB0.000870835
[ Download CSV Export 
Latest 4 internal transactions
Parent Txn Hash Block From To Value
0x0d47e6ff5801c22b429d8f1fe33d1ecbbf12d3e0ae2b7b3a1cdaf1b9fa5fb27f77880552021-05-28 0:40:2325 days 58 mins ago PancakeSwap: Router v20xc2d4269946a488c38b02c73eac19ec1b79a0e5b70.048804202791037026 BNB
0x3c478cf8d4e13176112a70584ba0da364278f79c347b16d26989818011ad2f8267007172021-04-19 11:23:3963 days 14 hrs ago BSC: Token Hub0xc2d4269946a488c38b02c73eac19ec1b79a0e5b70.0018 BNB
0x5cdd6f225c15e437ba2492211b970d5d7d79939abb875411472e421c894f0a8e66979362021-04-19 8:58:3763 days 16 hrs ago PancakeSwap: Router0xc2d4269946a488c38b02c73eac19ec1b79a0e5b70.049771873843341208 BNB
0x331f7a536c658796f965863e05b5abb82177fb4e2d3c7d728dd1da8d822188e866968572021-04-19 8:04:4063 days 17 hrs ago BSC: Token Hub0xc2d4269946a488c38b02c73eac19ec1b79a0e5b70.11104036 BNB
[ Download CSV Export 
Loading

Contract Name:
0 BNB

Compiler Version
0

Optimization Enabled:
0 BNB

Other Settings:
-NA-
Block Transaction Gas Used Reward
Age Block Fee Address BC Fee Address Voting Power Jailed Incoming
Block Uncle Number Difficulty Gas Used Reward
Loading
Loading
Make sure to use the "Vote Down" button for any spammy posts, and the "Vote Up" for interesting conversations.